Home   Weather   Erie   Past weeks

Flag for USA Past Weather in Erie, Pennsylvania, USA — Yesterday and Last 2 Weeks

49 °F

Passing clouds.

Feels Like: 45 °F
Forecast: 39 / 48 °F
Wind: 8 mph from Northwest

Location: Erie International Airport

Current Time: Oct 25, 2016 at 8:37:40 PM

Latest Report: Oct 25, 2016 at 7:51 PM

Visibility: 10 mi

Pressure: 30.40 "Hg

Humidity: 55%

Dew Point: 33 °F

Location of ErieLocation

Past Weather in Erie — Graph


Erie Temperature Yesterday

Maximum temperature yesterday: 54 °F (at 2:51 AM)
Minimum temperature yesterday: 50 °F (at 9:51 PM)
Average temperature yesterday: 52 °F

High & Low Weather Summary for the Past Weeks

High80 °F (Oct 17, 2:51 PM)94% (Oct 16, 8:51 PM)30.42 "Hg (Oct 16, 8:51 PM)
Low42 °F (Oct 14, 5:51 AM)38% (Oct 11, 3:51 PM)29.67 "Hg (Oct 18, 1:51 PM)
Average58 °F69%30.06 "Hg
* Reported Oct 10 6:51 PM — Oct 25 6:51 PM, Erie, Weather by CustomWeather, © 2016

Note: Actual official high and low records may vary slightly from our data, if they occured in-between our weather recording intervals... More about our weather records


Erie Weather History for the Previous 24 Hours

Scroll right to see more
Time TempWeatherWind HumidityBarometerVisibility
6:51 PM
Tue, Oct 25
48 °FPassing clouds.8 mph56%30.39 "Hg10 mi
5:51 PM48 °FPartly sunny.7 mph63%30.38 "Hg10 mi
4:51 PM49 °FPartly sunny.9 mph59%30.38 "Hg10 mi
3:51 PM49 °FMore clouds than sun.7 mph59%30.37 "Hg10 mi
2:51 PM48 °FMostly cloudy.3 mph68%30.37 "Hg10 mi
1:51 PM48 °FMostly cloudy.5 mph56%30.38 "Hg10 mi
12:51 PM48 °FMostly cloudy.6 mph50%30.39 "Hg10 mi
11:51 AM49 °FOvercast.6 mph46%30.39 "Hg10 mi
10:51 AM47 °FOvercast.9 mph46%30.40 "Hg10 mi
9:51 AM47 °FOvercast.9 mph46%30.38 "Hg10 mi
8:51 AM47 °FOvercast.10 mph50%30.37 "Hg10 mi
7:51 AM46 °FMore clouds than sun.14 mph51%30.37 "Hg10 mi
6:51 AM46 °FMostly cloudy.12 mph63%30.34 "Hg10 mi
5:51 AM47 °FOvercast.15 mph66%30.32 "Hg10 mi
4:51 AM47 °FLight rain. Overcast.13 mph77%30.30 "Hg10 mi
3:51 AM49 °FMostly cloudy.10 mph64%30.28 "Hg10 mi
2:51 AM50 °FMostly cloudy.13 mph61%30.28 "Hg10 mi
1:51 AM50 °FPartly cloudy.15 mph66%30.27 "Hg10 mi
12:51 AM50 °FOvercast.6 mph66%30.28 "Hg10 mi
11:51 PM
Mon, Oct 24
50 °FOvercast.7 mph63%30.28 "Hg10 mi
10:51 PM50 °FMostly cloudy.10 mph66%30.29 "Hg10 mi
9:51 PM50 °FMostly cloudy.12 mph61%30.29 "Hg10 mi
8:51 PM51 °FOvercast.15 mph48%30.28 "Hg10 mi
Weather by CustomWeather, © 2016

See weather overviewHow to use our weather pages